• In Sweden
  • List of Countries
  • For 7 days
  • Water Temperature
  • Satellite Maps
  • Weather Map
  • Weather Widgets
  • user-avatar
    Login

    Hourly Weather Kalat

    Today, 19 July, Thursday

    Time Temperature Precipitation Wind Pressure Humidity
    00:00 +10°C° 0 mm 2 mps 479 mmHg 55%
    01:00 +9°C° 0 mm 2 mps 479 mmHg 57%
    02:00 +9°C° 0 mm 2 mps 479 mmHg 60%
    03:00 +8°C° 0 mm 2 mps 478 mmHg 61%
    04:00 +8°C° 0 mm 2 mps 478 mmHg 63%
    05:00 +7°C° 0 mm 2 mps 478 mmHg 66%
    06:00 +8°C° 0 mm 2 mps 478 mmHg 60%
    07:00 +9°C° 0 mm 2 mps 479 mmHg 54%
    08:00 +12°C° 0 mm 2 mps 480 mmHg 49%
    09:00 +13°C° 0 mm 2 mps 481 mmHg 43%
    10:00 +14°C° 0 mm 2 mps 482 mmHg 38%
    11:00 +16°C° 0 mm 2 mps 482 mmHg 33%
    12:00 +16°C° 0 mm 3 mps 483 mmHg 32%
    13:00 +17°C° 0 mm 3 mps 483 mmHg 30%
    14:00 +18°C° 0 mm 4 mps 483 mmHg 29%
    15:00 +18°C° 0.1 mm 4 mps 483 mmHg 30%
    16:00 +18°C° 0.1 mm 4 mps 483 mmHg 32%
    17:00 +17°C° 0.1 mm 4 mps 482 mmHg 33%
    18:00 +15°C° 0 mm 4 mps 482 mmHg 37%
    19:00 +14°C° 0 mm 3 mps 481 mmHg 41%
    20:00 +13°C° 0 mm 3 mps 480 mmHg 45%
    21:00 +12°C° 0 mm 3 mps 480 mmHg 47%
    22:00 +12°C° 0 mm 2 mps 480 mmHg 50%
    23:00 +10°C° 0 mm 2 mps 479 mmHg 52%

    Tomorrow, 20 July, Friday

    Time Temperature Precipitation Wind Pressure Humidity
    00:00 +10°C° 0 mm 2 mps 479 mmHg 54%
    01:00 +9°C° 0 mm 2 mps 478 mmHg 56%
    02:00 +9°C° 0 mm 2 mps 478 mmHg 58%
    03:00 +8°C° 0 mm 2 mps 477 mmHg 60%
    04:00 +8°C° 0 mm 2 mps 477 mmHg 61%
    05:00 +7°C° 0 mm 2 mps 477 mmHg 62%
    06:00 +8°C° 0 mm 2 mps 478 mmHg 56%
    07:00 +10°C° 0 mm 2 mps 479 mmHg 50%
    08:00 +12°C° 0 mm 2 mps 480 mmHg 43%
    09:00 +13°C° 0 mm 2 mps 480 mmHg 38%
    10:00 +15°C° 0 mm 2 mps 481 mmHg 33%
    11:00 +16°C° 0 mm 3 mps 482 mmHg 28%
    12:00 +17°C° 0 mm 3 mps 482 mmHg 27%
    13:00 +18°C° 0 mm 3 mps 483 mmHg 26%
    14:00 +19°C° 0 mm 4 mps 483 mmHg 25%
    15:00 +18°C° 0.1 mm 4 mps 483 mmHg 27%
    16:00 +18°C° 0.1 mm 4 mps 482 mmHg 29%
    17:00 +18°C° 0.1 mm 4 mps 482 mmHg 30%
    18:00 +15°C° 0 mm 4 mps 482 mmHg 34%
    19:00 +14°C° 0 mm 3 mps 481 mmHg 38%
    20:00 +13°C° 0 mm 3 mps 480 mmHg 42%
    21:00 +12°C° 0 mm 3 mps 480 mmHg 44%
    22:00 +12°C° 0 mm 2 mps 480 mmHg 46%
    23:00 +12°C° 0 mm 2 mps 479 mmHg 48%

    Day after tomorrow, 21 July, Saturday

    Time Temperature Precipitation Wind Pressure Humidity
    00:00 +10°C° 0 mm 2 mps 479 mmHg 50%
    01:00 +10°C° 0 mm 2 mps 479 mmHg 51%
    02:00 +9°C° 0 mm 2 mps 478 mmHg 53%
    03:00 +9°C° 0 mm 2 mps 478 mmHg 54%
    04:00 +8°C° 0 mm 2 mps 478 mmHg 55%
    05:00 +9°C° 0 mm 1 mps 477 mmHg 56%
    06:00 +10°C° 0 mm 1 mps 478 mmHg 50%
    07:00 +11°C° 0 mm 1 mps 479 mmHg 44%
    08:00 +13°C° 0 mm 1 mps 480 mmHg 37%
    09:00 +14°C° 0 mm 2 mps 481 mmHg 34%
    10:00 +15°C° 0 mm 2 mps 482 mmHg 30%
    11:00 +17°C° 0 mm 2 mps 483 mmHg 27%
    12:00 +18°C° 0 mm 3 mps 483 mmHg 26%
    13:00 +18°C° 0 mm 3 mps 483 mmHg 26%
    14:00 +19°C° 0 mm 4 mps 484 mmHg 25%
    15:00 +19°C° 0 mm 4 mps 483 mmHg 27%
    16:00 +19°C° 0 mm 4 mps 483 mmHg 28%
    17:00 +19°C° 0 mm 4 mps 483 mmHg 29%
    18:00 +17°C° 0 mm 4 mps 482 mmHg 33%
    19:00 +16°C° 0 mm 3 mps 482 mmHg 37%
    20:00 +14°C° 0 mm 3 mps 481 mmHg 41%
    21:00 +14°C° 0 mm 2 mps 481 mmHg 43%
    22:00 +13°C° 0 mm 2 mps 480 mmHg 45%
    23:00 +12°C° 0 mm 2 mps 480 mmHg 48%

    22 July, Sunday

    Time Temperature Precipitation Wind Pressure Humidity
    00:00 +12°C° 0 mm 2 mps 479 mmHg 49%
    01:00 +10°C° 0 mm 2 mps 479 mmHg 51%
    02:00 +9°C° 0 mm 2 mps 478 mmHg 52%
    03:00 +9°C° 0 mm 2 mps 478 mmHg 53%
    04:00 +8°C° 0 mm 2 mps 477 mmHg 54%
    05:00 +8°C° 0 mm 2 mps 477 mmHg 55%
    06:00 +9°C° 0 mm 2 mps 478 mmHg 47%
    07:00 +12°C° 0 mm 2 mps 479 mmHg 40%
    08:00 +13°C° 0 mm 2 mps 480 mmHg 32%
    09:00 +13°C° 0 mm 3 mps 481 mmHg 29%
    10:00 +16°C° 0 mm 3 mps 481 mmHg 26%
    11:00 +17°C° 0 mm 3 mps 482 mmHg 23%
    12:00 +18°C° 0 mm 3 mps 482 mmHg 23%
    13:00 +19°C° 0 mm 3 mps 483 mmHg 23%
    14:00 +20°C° 0 mm 4 mps 483 mmHg 23%
    15:00 +19°C° 0 mm 4 mps 482 mmHg 26%
    16:00 +19°C° 0 mm 4 mps 482 mmHg 28%
    17:00 +19°C° 0 mm 4 mps 482 mmHg 30%
    18:00 +18°C° 0 mm 4 mps 481 mmHg 34%
    19:00 +16°C° 0 mm 3 mps 481 mmHg 38%
    20:00 +14°C° 0 mm 3 mps 480 mmHg 42%
    21:00 +14°C° 0 mm 2 mps 480 mmHg 45%
    22:00 +13°C° 0 mm 2 mps 480 mmHg 47%
    23:00 +13°C° 0 mm 1 mps 480 mmHg 50%

    23 July, Monday

    Time Temperature Precipitation Wind Pressure Humidity
    00:00 +12°C° 0 mm 1 mps 479 mmHg 51%
    01:00 +12°C° 0 mm 1 mps 479 mmHg 52%
    02:00 +11°C° 0 mm 1 mps 478 mmHg 54%
    03:00 +10°C° 0 mm 2 mps 478 mmHg 55%
    04:00 +9°C° 0 mm 2 mps 477 mmHg 56%
    05:00 +9°C° 0 mm 2 mps 477 mmHg 56%
    06:00 +10°C° 0 mm 2 mps 478 mmHg 51%
    07:00 +12°C° 0 mm 2 mps 479 mmHg 47%
    08:00 +13°C° 0 mm 2 mps 480 mmHg 42%
    09:00 +15°C° 0 mm 2 mps 480 mmHg 39%
    10:00 +16°C° 0 mm 3 mps 481 mmHg 37%
    11:00 +17°C° 0 mm 3 mps 482 mmHg 35%
    12:00 +18°C° 0 mm 3 mps 482 mmHg 34%
    13:00 +19°C° 0 mm 4 mps 482 mmHg 33%
    14:00 +19°C° 0 mm 4 mps 482 mmHg 33%
    15:00 +19°C° 0.1 mm 4 mps 482 mmHg 34%
    16:00 +19°C° 0.1 mm 4 mps 482 mmHg 35%
    17:00 +18°C° 0.1 mm 4 mps 482 mmHg 36%
    18:00 +17°C° 0 mm 4 mps 481 mmHg 39%
    19:00 +16°C° 0 mm 3 mps 481 mmHg 41%
    20:00 +14°C° 0 mm 3 mps 480 mmHg 44%
    21:00 +13°C° 0 mm 3 mps 480 mmHg 46%
    22:00 +13°C° 0 mm 2 mps 480 mmHg 48%
    23:00 +13°C° 0 mm 2 mps 479 mmHg 50%

    24 July, Tuesday

    Time Temperature Precipitation Wind Pressure Humidity
    00:00 +12°C° 0 mm 2 mps 479 mmHg 52%
    01:00 +10°C° 0 mm 2 mps 478 mmHg 53%
    02:00 +10°C° 0 mm 2 mps 478 mmHg 55%
    03:00 +9°C° 0 mm 2 mps 478 mmHg 56%
    04:00 +9°C° 0 mm 2 mps 478 mmHg 57%
    05:00 +8°C° 0 mm 2 mps 477 mmHg 59%
    06:00 +10°C° 0 mm 2 mps 478 mmHg 53%
    07:00 +12°C° 0 mm 2 mps 479 mmHg 47%
    08:00 +13°C° 0 mm 2 mps 480 mmHg 41%
    09:00 +14°C° 0 mm 3 mps 481 mmHg 37%
    10:00 +16°C° 0 mm 3 mps 482 mmHg 33%
    11:00 +17°C° 0 mm 3 mps 483 mmHg 29%
    12:00 +18°C° 0 mm 4 mps 483 mmHg 28%
    13:00 +19°C° 0 mm 4 mps 483 mmHg 27%
    14:00 +19°C° 0 mm 4 mps 483 mmHg 25%
    15:00 +19°C° 0 mm 4 mps 483 mmHg 26%
    16:00 +19°C° 0 mm 4 mps 483 mmHg 27%
    17:00 +18°C° 0 mm 4 mps 483 mmHg 28%
    18:00 +17°C° 0 mm 4 mps 482 mmHg 31%
    19:00 +15°C° 0 mm 4 mps 481 mmHg 34%
    20:00 +14°C° 0 mm 3 mps 481 mmHg 37%
    21:00 +13°C° 0 mm 3 mps 481 mmHg 38%
    22:00 +12°C° 0 mm 3 mps 480 mmHg 40%
    23:00 +12°C° 0 mm 2 mps 480 mmHg 42%
    Show more